1313884834736,45.4458
1313884894736,45.5525
1313884954736,45.4958
1313885014736,45.5676
1313885074736,45.6538
1313885134736,45.6426
1313885194736,45.6203
1313885254736,45.4684
1313885314736,45.4978
1313885374736,45.6412
1313885434736,45.4888
1313885494736,45.6197
1313885554736,45.5466
1313885614736,45.5854
1313885674736,45.6243
1313885734736,45.5295
1313885794736,45.5721
1313885854736,45.5150
1313885914736,45.6419
1313885974736,45.7351
1313886034736,45.6822
1313886094736,45.5447
1313886154736,45.6099
1313886214736,45.6639
1313886274736,45.5611
1313886334736,45.7903
1313886394736,45.7817
1313886454736,45.6269
1313886514736,45.7017
1313886574736,45.6520
1313886634736,45.8506
1313886694736,45.7911
1313886754736,45.6198
1313886814736,45.7186
1313886874736,45.7318
1313886934736,45.6969
1313886994736,45.8044
1313887054736,45.7462
1313887114736,45.6007
1313887174736,45.9098
1313887234736,46.2314
1313887294736,45.7371
1313887354736,45.8039
1313887414736,45.7063
1313887474736,45.6819
1313887534736,45.8427
1313887594736,45.8198
1313887654736,45.8772
1313887714736,45.9535
1313887774736,45.8687
1313887834736,45.8824
1313887894736,45.7437
1313887954736,45.8471
1313888014736,45.8593
1313888074736,45.9323
1313888134736,45.8390
1313888194736,45.8960
1313888254736,45.9015
1313888314736,45.7944
1313888374736,45.8154
1313888434746,45.8050
1313888494746,45.9870
1313888554746,45.7661
1313888614746,45.7495
1313888674746,45.8525
1313888734746,45.8595
1313888794746,45.8826
1313888854746,45.9342
1313888914746,45.9093
1313888974746,45.8596
1313889034746,45.9945
1313889094746,45.8859
1313889154746,46.0414
1313889214746,46.0291
1313889274746,46.0461
1313889334746,46.0950
1313889394746,45.9796
1313889454746,45.9432
1313889514746,46.1012
1313889574746,46.0951
1313889634746,46.0591
1313889694746,45.9836
1313889754746,46.1204
1313889814746,46.1277
1313889874746,46.2165
1313889934746,46.1381
1313889994746,46.1951
1313890054746,45.9476
1313890114746,46.3110
1313890174746,46.0515
1313890234746,46.1482
1313890294746,46.2538
1313890354746,46.2881
1313890414746,46.3553
1313890474746,46.2431
1313890534746,46.3346
1313890594746,46.3250
1313890654746,46.3163
1313890714746,46.2390
1313890774746,46.4742
1313890834746,46.5451
1313890894746,46.3396
1313890954746,46.2681
1313891014746,46.4206
1313891074746,46.4039
1313891134746,46.4031
1313891194746,46.2385
1313891254746,46.2948
1313891314746,46.4368
1313891374746,46.3177
1313891434746,46.3660
1313891494746,46.4016
1313891554746,46.3311
1313891614746,46.4418
1313891674746,46.3487
1313891734746,46.3660
1313891794746,46.2414
1313891854746,46.3624
1313891914746,46.2392
1313891974746,46.3714
1313892034756,46.3017
1313892094756,46.3387
1313892154756,46.2037
1313892214756,46.3361
1313892274756,46.1792
1313892334756,46.2040
1313892394756,46.3266
1313892454756,46.1830
1313892514756,46.1992
1313892574756,46.0964
1313892634756,46.0088
1313892694756,46.0446
1313892754756,45.9618
1313892814756,46.0625
1313892874756,46.0593
1313892934756,45.9312
1313892994756,46.0753
1313893054756,46.1732
1313893114756,45.8111
1313893174756,45.9571
1313893234756,45.9436
1313893294756,45.7851
1313893354756,45.8792
1313893414756,45.9701
1313893474756,46.0389
1313893534756,45.9926
1313893594756,45.8750
1313893654756,46.0274
1313893714756,45.8825
1313893774756,45.8637
1313893834756,45.8014
1313893894756,46.0485
1313893954756,45.9132
1313894014756,45.8727
1313894074756,45.8902
1313894134756,45.9202
1313894194756,45.7679
1313894254756,45.9295
1313894314756,45.9106
1313894374756,45.6879
1313894434756,45.8929
1313894494756,45.8506
1313894554756,45.8457
1313894614756,45.8833
1313894674756,45.9083
1313894734756,45.8890
1313894794756,45.7191
1313894854756,45.6932
1313894914756,45.6380
1313894974756,45.6658
1313895034756,45.7188
1313895094756,45.6343
1313895154756,45.7990
1313895214756,45.5517
1313895274756,45.6573
1313895334756,45.7791
1313895394756,45.5816
1313895454756,45.6396
1313895514756,45.7591
1313895574756,45.6257
1313895634766,45.6994
1313895694766,45.6342
1313895754766,45.7667
1313895814766,45.7872
1313895874766,45.6098
1313895934766,45.7941
1313895994766,45.6955
1313896054766,45.8290
1313896114766,45.7354
1313896174766,45.7833
1313896234766,45.6643
1313896294766,45.7914
1313896354766,45.7064
1313896414766,45.6761
1313896474766,45.7750
1313896534766,45.7632
1313896594766,45.6494
1313896654766,45.6009
1313896714766,45.6501
1313896774766,45.7154
1313896834766,45.7170
1313896894766,45.5832
1313896954766,45.7099
1313897014766,45.7911
1313897074766,45.6372
1313897134766,45.6425
1313897194766,45.7830
1313897254766,45.5777
1313897314766,45.6455
1313897374766,45.6295
1313897434766,45.7772
1313897494766,45.6122
1313897554766,45.5912
1313897614766,45.6687
1313897674766,45.6138
1313897734766,45.7323
1313897794766,45.6829
1313897854766,45.6171
1313897914766,45.7981
1313897974766,45.7081
1313898034766,45.6171
1313898094766,45.6310
1313898154766,45.6484
1313898214766,45.6002
1313898274766,45.5590
1313898334766,45.8611
1313898394766,45.5618
1313898454766,45.7627
1313898514766,45.7158
1313898574766,45.7133
1313898634766,45.5556
1313898694766,45.7024
1313898754766,45.6268
1313898814766,45.6682
1313898874766,45.7326
1313898934766,45.6984
1313898994766,45.6511
1313899054766,45.5959
1313899114766,45.7025
1313899174766,45.7407
1313899234775,45.6003
1313899294775,45.6995
1313899354775,45.6338
1313899414775,45.7151
1313899474775,45.6436
1313899534775,45.7099
1313899594775,45.6992
1313899654775,45.6968
1313899714775,45.7306
1313899774775,45.5689
1313899834775,45.5975
1313899894775,45.7173
1313899954775,45.5635
1313900014775,45.5744
1313900074775,45.4191
1313900134775,45.7260
1313900194775,45.7067
1313900254775,45.7861
1313900314775,45.7345
1313900374775,45.6115
1313900434775,45.5892
1313900494775,45.6285
1313900554775,45.4784
1313900614775,45.7153
1313900674775,45.7138
1313900734775,45.6144
1313900794775,45.6216
1313900854775,45.6815
1313900914775,45.5244
1313900974775,45.6102
1313901034775,45.6480
1313901094775,45.6058
1313901154775,45.5684
1313901214775,45.6934
1313901274775,45.8708
1313901334775,45.7439
1313901394775,45.6410
1313901454775,45.7601
1313901514775,45.7525
1313901574775,45.9473
1313901634775,45.8301
1313901694775,45.7557
1313901754775,45.7065
1313901814775,45.8384
1313901874775,45.8665
1313901934775,45.7688
1313901994775,45.6799
1313902054775,45.8029
1313902114775,45.7697
1313902174775,45.7886
1313902234775,45.7971
1313902294775,45.8850
1313902354775,45.7889
1313902414775,45.8533
1313902474775,45.8151
1313902534775,45.8074
1313902594775,45.8146
1313902654775,45.7639
1313902714775,45.8479
1313902774775,45.8418
1313902834784,45.8695
1313902894785,45.8508
1313902954785,45.7646
1313903014785,45.8661
1313903074785,45.7979
1313903134785,45.8691
1313903194784,45.8551
1313903254785,45.7583
1313903314785,45.8063
1313903374785,45.8454
1313903434785,45.9922
1313903494785,46.0101
1313903554785,45.9451
1313903614785,45.9067
1313903674785,45.9589
1313903734785,46.2454
1313903794785,46.0291
1313903854784,45.9893
1313903914784,46.0247
1313903974784,45.9920
1313904034784,46.1357
1313904094784,46.0202
1313904154784,45.9568
1313904214784,45.9978
1313904274785,45.9999
1313904334785,46.0675
1313904394785,46.0692
1313904454785,46.1658
1313904514784,46.0342
1313904574785,45.9770
1313904634785,45.9652
1313904694785,45.9924
1313904754785,46.1717
1313904814785,46.0584
1313904874785,46.0718
1313904934785,45.9745
1313904994785,46.0099
1313905054785,45.9978
1313905114785,45.9908
1313905174785,45.9938
1313905234784,46.0618
1313905294784,46.1359
1313905354784,45.8470
1313905414784,46.2030
1313905474784,45.9087
1313905534784,46.0258
1313905594785,45.9121
1313905654785,46.0272
1313905714785,46.1360
1313905774785,46.1208
1313905834785,46.0586
1313905894784,46.1183
1313905954785,45.8736
1313906014785,45.9975
1313906074785,46.1948
1313906134785,46.0787
1313906194785,46.1659
1313906254785,46.1243
1313906314785,45.9772
1313906374785,46.0144
1313906434794,46.0898
1313906494794,46.0935
1313906554794,46.1030
1313906614794,46.1327
1313906674794,46.0942
1313906734794,46.2977
1313906794794,46.0091
1313906854794,46.0019
1313906914794,46.2429
1313906974794,46.2787
1313907034794,46.0819
1313907094794,46.1343
1313907154794,46.1016
1313907214794,46.1817
1313907274794,46.2037
1313907334794,46.2275
1313907394794,46.2690
1313907454794,46.2054
1313907514794,46.2593
1313907574794,46.2623
1313907634794,46.4104
1313907694794,46.3634
1313907754794,46.1313
1313907814794,46.3556
1313907874794,46.2605
1313907934794,46.2317
1313907994794,46.1607
1313908054794,46.2803
1313908114794,46.2310
1313908174794,46.2646
1313908234794,46.4242
1313908294794,46.3051
1313908354794,46.4435
1313908414794,46.3234
1313908474794,46.3488
1313908534794,46.3884
1313908594794,46.3857
1313908654794,46.4184
1313908714794,46.4002
1313908774794,46.5833
1313908834794,46.4059
1313908894794,46.3980
1313908954794,46.5093
1313909014794,46.3775
1313909074794,46.5621
1313909134794,46.4200
1313909194794,46.4546
1313909254794,46.3865
1313909314794,46.3710
1313909374794,46.4392
1313909434794,46.2994
1313909494794,46.4896
1313909554794,46.3539
1313909614794,46.2842
1313909674794,46.3382
1313909734794,46.4222
1313909794794,46.3730
1313909854794,46.3146
1313909914794,46.5147
1313909974794,46.4477
1313910034804,46.3730
1313910094804,46.4556
1313910154804,46.5471
1313910214804,46.3529
1313910274804,46.4681
1313910334804,46.5797
1313910394804,46.3776
1313910454804,46.4275
1313910514804,46.5131
1313910574804,46.5971
1313910634804,46.5382
1313910694804,46.4292
1313910754804,46.4188
1313910814804,46.4148
1313910874804,46.6023
1313910934804,46.5304
1313910994804,46.3938
1313911054804,46.4774
1313911114804,46.5973
1313911174804,46.5924
1313911234804,46.4714
1313911294804,46.4989
1313911354804,46.5379
1313911414804,46.6406
1313911474804,46.6644
1313911534804,46.6671
1313911594804,46.5056
1313911654804,46.5867
1313911714804,46.4624
1313911774804,46.4993
1313911834804,46.6077
1313911894804,46.5789
1313911954804,46.6181
1313912014804,46.5007
1313912074804,46.4731
1313912134804,46.5701
1313912194804,46.5875
1313912254804,46.6679
1313912314804,46.5829
1313912374804,46.5258
1313912434804,46.7387
1313912494804,46.5609
1313912554804,46.7242
1313912614804,46.6095
1313912674804,46.5741
1313912734804,46.5879
1313912794804,46.4874
1313912854804,46.5672
1313912914804,46.6018
1313912974804,46.5269
1313913034804,46.5093
1313913094804,46.3889
1313913154804,46.5143
1313913214804,46.4418
1313913274804,46.4523
1313913334804,46.5511
1313913394804,46.4482
1313913454804,46.3419
1313913514804,46.4645
1313913574804,46.3900
1313913634813,46.4477
1313913694813,46.4845
1313913754813,46.3621
1313913814813,46.5846
1313913874813,46.3528
1313913934813,46.3622
1313913994813,46.3944
1313914054813,46.4128
1313914114813,46.4388
1313914174813,46.4503
1313914234813,46.1753
1313914294813,46.4912
1313914354813,46.4172
1313914414813,46.4221
1313914474813,46.3727
1313914534813,46.3142
1313914594813,46.4234
1313914654813,46.5323
1313914714813,46.3266
1313914774813,46.3431
1313914834813,46.5460
1313914894813,46.3080
1313914954813,46.3142
1313915014813,46.2063
1313915074813,46.3930
1313915134813,46.2998
1313915194813,46.2925
1313915254813,46.3238
1313915314813,46.2056
1313915374813,46.2733
1313915434813,46.2135
1313915494813,46.1703
1313915554813,46.1993
1313915614813,46.2598
1313915674813,46.1084
1313915734813,46.1912
1313915794813,46.1078
1313915854813,46.1870
1313915914813,46.3873
1313915974813,46.2455
1313916034813,46.2290
1313916094813,46.0546
1313916154813,46.0986
1313916214813,46.1505
1313916274813,45.9920
1313916334813,45.9752
1313916394813,46.2287
1313916454813,46.0818
1313916514813,46.2184
1313916574813,46.1201
1313916634813,46.0434
1313916694813,46.1143
1313916754813,46.2080
1313916814813,46.1446
1313916874813,46.2482
1313916934813,46.2472
1313916994813,46.0338
1313917054813,46.0737
1313917114813,46.2220
1313917174813,46.2609
1313917234823,46.0810
1313917294823,46.1406
1313917354823,46.1641
1313917414823,46.2358
1313917474823,46.1382
1313917534823,46.1926
1313917594823,46.0389
1313917654823,46.1705
1313917714823,46.0049
1313917774823,46.0865
1313917834823,46.1009
1313917894823,45.9282
1313917954823,46.0442
1313918014823,46.2055
1313918074823,46.2468
1313918134823,46.1755
1313918194823,46.0788
1313918254823,46.0717
1313918314823,45.9870
1313918374823,46.0640
1313918434823,46.2036
1313918494823,45.9692
1313918554823,46.0009
1313918614823,46.1355
1313918674823,46.0507
1313918734823,46.1019
1313918794823,46.1219
1313918854823,46.1232
1313918914823,46.0797
1313918974823,46.2446
1313919034823,46.0509
1313919094823,46.2497
1313919154823,46.1246
1313919214823,46.0454
1313919274823,46.2076
1313919334823,46.0449
1313919394823,46.0669
1313919454823,46.2071
1313919514823,46.0363
1313919574823,46.0818
1313919634823,46.1780
1313919694823,46.1205
1313919754823,46.1594
1313919814823,46.2161
1313919874823,45.9674
1313919934823,46.3251
1313919994823,46.1637
1313920054823,46.0331
1313920114823,46.1351
1313920174823,46.0338
1313920234823,46.1521
1313920294823,46.0915
1313920354823,46.1310
1313920414823,46.0467
1313920474823,46.1332
1313920534823,46.1740
1313920594823,46.1175
1313920654823,46.1462
1313920714823,46.1587
1313920774823,45.9493
1313920834833,46.2862
1313920894833,46.2647
1313920954833,46.1756
1313921014833,46.1465
1313921074833,46.2407
1313921134833,46.1016
1313921194833,46.1892
1313921254833,46.1350
1313921314833,46.2328
1313921374833,46.1675
1313921434833,46.2211
1313921494833,46.2234
1313921554833,46.1243
1313921614833,46.2696
1313921674833,46.1776
1313921734833,46.2102
1313921794833,46.1448
1313921854833,46.2013
1313921914833,46.1967
1313921974833,46.0713
1313922034833,46.1342
1313922094833,46.1244
1313922154833,46.2005
1313922214833,46.2381
1313922274833,46.3145
1313922334833,46.0923
1313922394833,46.1513
1313922454833,46.1459
1313922514833,46.0778
1313922574833,46.3844
1313922634833,46.1286
1313922694833,46.2743
1313922754833,46.2084
1313922814833,46.1505
1313922874833,46.2127
1313922934833,46.2024
1313922994833,46.1034
1313923054833,46.1801
1313923114833,46.1422
1313923174833,46.1579
1313923234833,46.0853
1313923294833,46.1269
1313923354833,46.1213
1313923414833,46.1953
1313923474833,46.1642
1313923534833,46.0050
1313923594833,46.1542
1313923654833,46.0146
1313923714833,46.1609
1313923774833,46.2189
1313923834833,46.2363
1313923894833,46.1284
1313923954833,46.0769
1313924014833,46.2171
1313924074833,46.2473
1313924134833,46.0917
1313924194833,46.0965
1313924254833,46.1987
1313924314833,46.1662
1313924374833,46.1243
1313924434843,46.1922
1313924494843,46.3050
1313924554843,46.2434
1313924614843,46.1912
1313924674843,46.2653
1313924734843,46.2190
1313924794843,46.2634
1313924854843,46.1184
1313924914843,46.3035
1313924974843,46.1923
1313925034843,46.2466
1313925094843,46.3200
1313925154843,46.1943
1313925214843,46.2420
1313925274843,46.2337
1313925334843,46.3088
1313925394843,46.3105
1313925454843,46.1419
1313925514843,46.2180
1313925574843,46.2235
1313925634843,46.3086
1313925694843,46.1599
1313925754843,46.1976
1313925814843,46.2569
1313925874843,46.1081
1313925934843,46.1944
1313925994843,46.1812
1313926054843,46.2446
1313926114843,46.2839
1313926174843,46.2239
1313926234843,46.2179
1313926294843,46.2249
1313926354843,46.2311
1313926414843,46.1233
1313926474843,46.1824
1313926534843,46.1887
1313926594843,46.2640
1313926654843,46.0801
1313926714843,46.3874
1313926774843,46.2164
1313926834843,46.1358
1313926894843,46.2154
1313926954843,46.2106
1313927014843,46.1701
1313927074843,46.0821
1313927134843,46.0189
1313927194843,46.2138
1313927254843,46.0382
1313927314843,46.1763
1313927374843,46.1204
1313927434843,46.1647
1313927494843,45.9759
1313927554843,45.9633
1313927614843,46.1725
1313927674843,45.9136
1313927734843,46.0564
1313927794843,46.0801
1313927854843,46.1787
1313927914843,45.9467
1313927974843,46.1347
1313928034853,46.0230
1313928094853,46.0421
1313928154853,45.9288
1313928214853,46.0323
1313928274853,45.9209
1313928334853,45.9440
1313928394853,45.9290
1313928454853,45.9337
1313928514853,46.0011
1313928574853,45.9201
1313928634853,45.9642
1313928694853,45.9841
1313928754853,45.9129
1313928814853,45.9091
1313928874853,45.8669
1313928934853,45.9543
1313928994853,46.0924
1313929054853,46.0810
1313929114853,45.9361
1313929174853,46.0006
1313929234853,46.0559
1313929294853,46.0597
1313929354853,46.1959
1313929414853,46.0576
1313929474853,46.0198
1313929534853,46.1151
1313929594853,46.0064
1313929654853,46.1153
1313929714853,46.0156
1313929774853,46.1233
1313929834853,46.0653
1313929894853,46.1165
1313929954853,46.0813
1313930014853,46.1166
1313930074853,46.2138
1313930134853,46.1617
1313930194853,46.2677
1313930254853,46.1626
1313930314853,46.2096
1313930374853,46.1725
1313930434853,46.1924
1313930494853,46.1391
1313930554853,46.2552
1313930614853,46.4321
1313930674853,46.2379
1313930734853,46.2637
1313930794853,46.2329
1313930854853,46.3662
1313930914853,46.2414
1313930974853,46.3340
1313931034853,46.3190
1313931094853,46.2600
1313931154853,46.3937
1313931214853,46.2486
1313931274853,46.2271
1313931334853,46.1768
1313931394853,46.2583
1313931454853,46.3468
1313931514853,46.3211
1313931574853,46.4630
1313931634863,46.2779
1313931694863,46.4173
1313931754863,46.3095
1313931814863,46.4721
1313931874863,46.3498
1313931934863,46.3196
1313931994863,46.3374
1313932054863,46.4416
1313932114863,46.3645
1313932174863,46.3921
1313932234863,46.3393
1313932294863,46.4339
1313932354863,46.3828
1313932414863,46.4695
1313932474863,46.5305
1313932534863,46.3318
1313932594863,46.3478
1313932654863,46.3872
1313932714863,46.3005
1313932774863,46.3969
1313932834863,46.2613
1313932894863,46.4656
1313932954863,46.0442
1313933014863,46.3578
1313934154863,46.1406
1313934214863,46.1047
1313934274863,46.4217
1313934334863,46.2417
1313934394863,46.1331
1313934454863,46.1756
1313934514863,46.0914
1313934574863,46.1696
1313934634863,46.1023
1313934694863,46.2506
1313934754863,46.0619
1313934814863,46.2610
1313934874863,46.3098
1313934934863,46.1696
1313934994863,46.3131
1313935054863,46.1556
1313935114863,46.2673
1313935174863,46.3142
1313935234873,46.1456
1313935294873,46.2838
1313935354873,46.1833
1313935414873,46.2158
1313935474873,46.2983
1313935534873,46.1323
1313935594873,46.3165
1313935654873,46.2068
1313935714873,46.3727
1313935774873,46.0864
1313935834873,46.2305
1313935894873,46.1666
1313935954873,46.2020
1313936014873,46.2090
1313936074873,46.2289
1313936134873,46.3866
1313936194873,46.1936
1313936254873,46.2333
1313936314873,46.2438
1313936374873,46.1458
1313936434873,46.1091
1313936494873,46.0498
1313936554873,46.2006
1313936614873,46.2759
1313936674873,46.0885
1313936734873,46.2094
1313936794873,46.1692
1313936854873,46.2471
1313936914873,46.1512
1313936974873,46.0312
1313937034873,46.2662
1313937094873,46.2314
1313937154873,46.2469
1313937214873,46.2760
1313937274873,46.1330
1313937334873,46.2177
1313937394873,46.2289
1313937454873,46.1845
1313937514873,46.2552
1313937574873,46.1818
1313937634873,46.2149
1313937694873,46.2311
1313937754873,46.2658
1313937814873,46.1513
1313937874873,46.3702
1313937934873,46.1942
1313937994873,46.2424
1313938054873,46.2288
1313938114873,46.2582
1313938174873,46.2175
1313938234873,46.1869
1313938294873,46.0374
1313938354873,46.3012
1313938414873,46.2916
1313938474873,46.2806
1313938534873,46.2523
1313938594873,46.1727
1313938654873,46.2607
1313938714873,46.1206
1313938774873,46.1964
1313938834884,46.1609
1313938894884,46.1554
1313938954884,46.0579
1313939014884,46.1496
1313939074884,46.1275
1313939134884,46.0926
1313939194884,46.1728
1313939254884,46.2414
1313939314884,46.1433
1313939374884,46.2623
1313939434884,46.1187
1313939494884,46.1378
1313939554884,46.1136
1313939614884,46.0746
1313939674884,46.0574
1313939734884,46.1635
1313939794884,46.1135
1313939854884,46.0761
1313939914884,46.2007
1313939974884,45.9707
1313940034884,46.1901
1313940094884,46.2731
1313940154884,46.0950
1313940214884,46.1678
1313940274884,46.0493
1313940334884,46.0491
1313940394884,46.0735
1313940454884,46.1053
1313940514884,46.0827
1313940574884,46.0123
1313940634884,46.2158
1313940694884,46.1102
1313940754884,46.0922
1313940814884,46.0911
1313940874884,46.1431
1313940934884,46.0546
1313940994884,46.1163
1313941054884,46.0388
1313941114884,46.1029
1313941174884,46.1866
1313941234884,46.1184
1313941294884,46.1928
1313941354884,46.0096
1313941414884,46.1843
1313941474884,46.0704
1313941534884,46.2162
1313941594884,46.1469
1313941654884,46.3751
1313941714884,46.1571
1313941774884,46.1403
1313941834884,46.1690
1313941894884,46.1678
1313941954884,46.2345
1313942014884,46.2598
1313942074884,46.2810
1313942134884,46.1775
1313942194884,46.1889
1313942254884,46.2672
1313942314884,46.3385
1313942374884,46.3097
1313942434895,46.1943
1313942494895,46.2359
1313942554895,46.3859
1313942614895,46.4098
1313942674895,46.3485
1313942734895,46.2726
1313942794895,46.3134
1313942854895,46.2880
1313942914895,46.3589
1313942974895,46.3139
1313943034895,46.3568
1313943094895,46.3559
1313943154895,46.5446
1313943214895,46.3355
1313943274895,46.4031
1313943334895,46.1762
1313943394895,46.3435
1313943454895,46.3291
1313943514895,46.3319
1313943574895,46.3207
1313943634895,46.3482
1313943694895,46.3300
1313943754895,46.3402
1313943814895,46.2615
1313943874895,46.2899
1313943934895,46.2792
1313943994895,46.2148
1313944054895,46.2546
1313944114895,46.3028
1313944174895,46.3480
1313944234895,46.2460
1313944294895,46.3098
1313944354895,46.3484
1313944414895,46.2015
1313944474895,46.2972
1313944534895,46.3149
1313944594895,46.2357
1313944654895,46.2652
1313944714895,46.3290
1313944774895,46.3275
1313944834895,46.3803
1313944894895,46.3321
1313944954895,46.3581
1313945014895,46.3933
1313945074895,46.3436
1313945134895,46.2772
1313945194895,46.3658
1313945254895,46.2869
1313945314895,46.2316
1313945374895,46.3405
1313945434895,46.2969
1313945494895,46.4689
1313945554895,46.4515
1313945614895,46.3517
1313945674895,46.3790
1313945734895,46.4892
1313945794895,46.4907
1313945854895,46.3589
1313945914895,46.3472
1313945974895,46.3776
1313946034906,46.3955
1313946094906,46.2256
1313946154906,46.2462
1313946214906,46.5084
1313946274906,46.5324
1313946334906,46.3707
1313946394906,46.4181
1313946454906,46.3084
1313946514906,46.4658
1313946574906,46.3684
1313946634906,46.3650
1313946694906,46.3039
1313946754906,46.2493
1313946814906,46.3033
1313946874906,46.3990
1313946934906,46.3172
1313946994906,46.2526
1313947054906,46.3340
1313947114906,46.2829
1313947174906,46.2424
1313947234906,46.2892
1313947294906,46.2917
1313947354906,46.1859
1313947414906,46.1681
1313947474906,46.3963
1313947534906,46.2525
1313947594906,46.0933
1313947654906,46.3590
1313947714906,46.2818
1313947774906,46.2795
1313947834906,46.1821
1313947894906,46.2016
1313947954906,46.2063
1313948014906,46.2235
1313948074906,46.1750
1313948134906,46.1287
1313948194906,46.2564
1313948254906,46.1933
1313948314906,45.9861
1313948374906,46.2117
1313948434906,46.3107
1313948494906,46.2194
1313948554906,46.2805
1313948614906,46.2108
1313948674906,46.2769
1313948734906,46.2134
1313948794906,46.2979
1313948854906,46.2244
1313948914906,46.1497
1313948974906,46.2539
1313949034906,46.2070
1313949094906,46.3290
1313949154906,46.0971
1313949214906,46.2435
1313949274906,46.3350
1313949334906,46.2878
1313949394906,46.3364
1313949454906,46.1565
1313949514906,46.2524
1313949574906,46.2234
1313949634917,46.3593
1313949694917,46.3227
1313949754917,46.1357
1313949814917,46.2955
1313949874917,46.2325
1313949934917,46.4160
1313949994917,46.3855
1313950054917,46.4019
1313950114917,46.3679
1313950174917,46.2538
1313950234917,46.2567
1313950294917,46.3425
1313950354917,46.3402
1313950414917,46.5049
1313950474917,46.4951
1313950534917,46.3318
1313950594917,46.3971
1313950654917,46.2831
1313950714917,46.4334
1313950774917,46.3535
1313950834917,46.2124
1313950894917,46.2485
1313950954917,46.3414
1313951014917,46.5027
1313951074917,46.4493
1313951134917,46.3699
1313951194917,46.4360
1313951254917,46.2345